Погода в Спрингфилде

США     37°11′22″N   93°16′41″W
темп.,
°C
ветер,
м/с
пор.,
м/с
влажн.,
%
обл.,
%
осадки,
мм/ч
давл.,
гПа
погр.,
м
20 апреля, вт
вт2001:00+4св5109125 0.0 1017357
04:00+3св588999 0.0 1018310
07:00+3св5880100 0.0 1018373
10:00+1ссв5997100 0.9 1019447
13:000с61199100 5.3 1021589
16:000с61010099 7.0 1022696
19:00+1ссз510965 7.1 1023698
22:00−3зсз36975 0.0 1025105
21 апреля, ср
ср2101:00−4зсз36973 0.0 102693
04:00−6з24972 0.0 102657
07:00−5зюз25965 0.0 102776
10:00+2зюз4109819 0.0 1026360
13:00+6з61083100 0.0 10261287
16:00+9зсз7115899 0.0 10242167
19:00+7сз486891 0.1 1023578
22:00+3ссз2278100 0.0 102523
22 апреля, чт
чт2201:00+2з1179100 0.0 102510
04:00+1с118054 0.0 102510
07:00+2вюв1175100 0.0 102613
10:00+7ю1158100 0.0 1027355
13:00+11ю114494 0.0 10251378
16:00+12ююз3349100 0.0 10231505
19:00+9юв2465100 0.0 1021250
22:00+7ю3892100 0.6 1023452
23 апреля, пт
пт2301:00+6ююв4998100 2.8 1022376
04:00+6ююв51297100 0.4 1020445
07:00+6ююв71495100 0.6 1019455
10:00+7ююв81591100 0.0 1018486
13:00+11ююв81482100 0.1 1015629
16:00+12ююв71386100 1.5 1012738
19:00+12ююв51390100 1.5 1011670
22:00+10ююв51296100 0.4 1013524
24 апреля, сб
сб2401:00+10ююв41098100 1.6 1011345
04:00+11ююв41098100 2.1 1010440
07:00+11ю3899100 5.0 1010361
10:00+11юз3799100 2.4 1012401
13:00+12сз479797 5.9 1012450
16:00+13с698992 0.3 1013743
19:00+13с388527 0.4 1014491
22:00+8с411950 0.0 1019368